This is the latest recevied weather packets stored in our database for station/object SP1BMW-13. If no packets are shown the sender has not sent any weather packets the latest 1 day(s).
| Time | Temp. | Humidity | Pressure | Rain* | Wind** | Luminosity | Snow |
|---|---|---|---|---|---|---|---|
| 1778109473 | 7.22° C | 87% | 1009.3 hPa | 0 mm | 0 m/s | 0 W/m² | - |
| 1778109413 | 7.22° C | 88% | 1009.2 hPa | 0 mm | 2.24 m/s, 266° | 0 W/m² | - |
| 1778109293 | 7.22° C | 87% | 1009.2 hPa | 0 mm | 0.45 m/s, 311° | 0 W/m² | - |
| 1778109113 | 7.22° C | 87% | 1009.1 hPa | 0 mm | 0.45 m/s, 43° | 0 W/m² | - |
| 1778109053 | 7.22° C | 87% | 1009 hPa | 0 mm | 0.89 m/s, 46° | 0 W/m² | - |
| 1778108693 | 7.22° C | 87% | 1009.2 hPa | 0 mm | 2.24 m/s, 50° | 0 W/m² | - |
| 1778108573 | 7.22° C | 87% | 1009.2 hPa | 0 mm | 0.45 m/s, 51° | 0 W/m² | - |
| 1778108513 | 7.22° C | 87% | 1009.2 hPa | 0 mm | 1.34 m/s, 29° | 0 W/m² | - |
| 1778108453 | 7.22° C | 87% | 1009.2 hPa | 0 mm | 0.89 m/s, 48° | 0 W/m² | - |
| 1778108213 | 7.22° C | 87% | 1009.2 hPa | 0 mm | 1.34 m/s, 49° | 0 W/m² | - |
| 1778107853 | 7.22° C | 87% | 1009.2 hPa | 0 mm | 0.89 m/s, 22° | 0 W/m² | - |
| 1778107793 | 7.22° C | 87% | 1009.1 hPa | 0 mm | 1.79 m/s, 38° | 0 W/m² | - |
| 1778107733 | 7.22° C | 87% | 1009.4 hPa | 0 mm | 1.79 m/s, 8° | 0 W/m² | - |
| 1778107613 | 7.22° C | 87% | 1009.4 hPa | 0 mm | 0.89 m/s, 34° | 0 W/m² | - |
| 1778107133 | 7.22° C | 87% | 1009.1 hPa | 0 mm | 0.89 m/s, 33° | 0 W/m² | - |
| 1778107013 | 7.22° C | 87% | 1009.2 hPa | 0 mm | 0 m/s | 0 W/m² | - |
| 1778106893 | 7.22° C | 87% | 1009.2 hPa | 0 mm | 0.89 m/s, 22° | 0 W/m² | - |
| 1778106653 | 7.22° C | 87% | 1009.1 hPa | 0 mm | 1.34 m/s, 43° | 0 W/m² | - |
| 1778106533 | 7.22° C | 87% | 1009.1 hPa | 0 mm | 2.24 m/s, 46° | 0 W/m² | - |
| 1778106473 | 7.22° C | 87% | 1009.1 hPa | 0 mm | 0.45 m/s, 9° | 0 W/m² | - |
| 1778106413 | 7.22° C | 87% | 1008.9 hPa | 0 mm | 0.89 m/s, 19° | 0 W/m² | - |
| 1778106113 | 7.22° C | 88% | 1009.1 hPa | 0 mm | 1.79 m/s, 291° | 0 W/m² | - |
| 1778105873 | 7.22° C | 88% | 1009.2 hPa | 0 mm | 0.89 m/s, 56° | 0 W/m² | - |
| 1778105813 | 7.22° C | 88% | 1009.2 hPa | 0 mm | 0.45 m/s, 326° | 0 W/m² | - |
| 1778105693 | 7.22° C | 88% | 1009 hPa | 0 mm | 0.89 m/s, 16° | 0 W/m² | - |
* Rain latest hour (hover to see other rain measurements)
** Current wind speed in m/s (hover to see current wind gust speed)